Вернуться в каталог

SL-3 R/B

АктивенPO
NORAD 4420·ROCKET BODY·🇷🇺 Russia

Запущен Jun 23, 1970 с Plesetsk Cosmodrome

Loading…

Ближайшие Пролёты (ближайшие 24 часа)

TLE

СвежийSource: Space-Track

Эпоха: Sep 14, 2026, 07:57 UTC

1 04420U 70047B   26257.33159376 -.00000027  00000-0 -20773-4 0  9991
2 04420  81.2268 269.6280 0087292  17.3685 343.0440 14.12639752894605

Отслеживайте SL-3 R/B в реальном времени с AllMySat

Download on the App Store